Hourly Data Report for October 10, 2014

All times are specified in Local Standard Time (LST). Add 1 hour to adjust for Daylight Saving Time where and when it is observed.

RANKIN INLET A
NUNAVUT

62°48'38.000" N
92°06'53.000" W
32.30 m
2303405
71083
YRT

Download Data

Hourly Data (October 2014)
Hourly Data Report for October 10, 2014
Temp Definition
°C
Dew Point Temp Definition
°C
Rel Hum Definition
%
Wind Dir Definition
10's deg

Wind Spd Definition
km/h
Visibility Definition
km
Stn Press Definition
kPa
Hmdx Definition


Wind Chill Definition


Weather Definition


TIME
00:00 Legend Double Dagger -5.1 -6.5 90 32 22 24.1 101.48   -12 Mostly Cloudy
01:00 Legend Double Dagger -4.9 -6.2 91 32 25 24.1 101.43   -12 LegendNANA
02:00 Legend Double Dagger -5.0 -6.1 92 32 25 24.1 101.39   -12 LegendNANA
03:00 Legend Double Dagger -5.3 -6.5 91 32 27 24.1 101.34   -13 Mostly Cloudy
04:00 Legend Double Dagger -5.2 -6.4 91 33 34 24.1 101.28   -14 LegendNANA
05:00 Legend Double Dagger -5.2 -6.4 91 32 34 24.1 101.22   -14 LegendNANA
06:00 Legend Double Dagger -6.5 -8.0 89 32 30 24.1 101.17   -15 Mostly Cloudy
07:00 Legend Double Dagger -5.7 -7.1 90 34 36 19.3 101.09   -15 LegendNANA
08:00 Legend Double Dagger -4.9 -6.4 89 34 40 24.1 101.02   -14 LegendNANA
09:00 Legend Double Dagger -4.5 -6.8 84 34 38 24.1 100.97   -13 Mostly Cloudy
10:00 Legend Double Dagger -3.4 -6.0 82 34 41 24.1 100.89   -12 LegendNANA
11:00 Legend Double Dagger -3.2 -6.5 78 34 41 24.1 100.85   -12 LegendNANA
12:00 Legend Double Dagger -2.8 -6.6 75 35 41 24.1 100.78   -11 Mostly Cloudy
13:00 Legend Double Dagger -2.7 -6.5 75 34 40 24.1 100.76   -11 LegendNANA
14:00 Legend Double Dagger -2.8 -6.0 79 35 33 24.1 100.72   -10 LegendNANA
15:00 Legend Double Dagger -2.7 -5.7 80 33 30 24.1 100.66   -10 Mostly Cloudy
16:00 Legend Double Dagger -2.9 -5.7 81 33 32 24.1 100.62   -10 LegendNANA
17:00 Legend Double Dagger -2.9 -5.7 81 34 24 24.1 100.56   -10 LegendNANA
18:00 Legend Double Dagger -3.2 -5.5 84 32 24 24.1 100.49   -10 Mostly Cloudy
19:00 Legend Double Dagger -2.5 -4.1 89 32 22 24.1 100.46   -9 Snow Showers
20:00 Legend Double Dagger -1.8 -3.8 86 32 21 24.1 100.37   -8 Snow Showers
21:00 Legend Double Dagger -1.5 -3.7 85 32 25 24.1 100.29   -8 Snow Showers
22:00 Legend Double Dagger -1.7 -3.7 86 31 19 24.1 100.22   -7 Snow Showers
23:00 Legend Double Dagger -1.5 -4.3 81 32 30 24.1 100.19   -8 Snow Showers

Notes on Data Quality.

Legend

  • E = Estimated
  • M = Missing
  • NA = Not Available
  • ‡ = Partner data that is not subject to review by the National Climate Archives
Date modified: